QPF
0.03 0.03 0.01 0.02 0.03 0.03 0.03 0.01 0.00 0.01 0.01 0.00 0.00 0.00 0.00 0.00 0.00 0.00 0.00 0.00 0.00 0.00
0.00 0.01 0.01 0.01 0.01 0.02 0.02 0.03 0.02 0.01 0.01 0.01 0.00 0.00 0.00 0.00 0.00 0.00 0.00 0.00 0.00 0.00
0.00 0.01 0.03 0.01 0.01 0.01 0.02 0.03 0.03 0.02 0.02 0.02 0.01 0.00 0.00 0.00 0.00 0.00 0.00 0.00 0.00 0.00
0.00 0.01 0.02 0.01 0.01 0.02 0.03 0.03 0.03 0.03 0.02 0.02 0.02 0.01 0.00 0.00 0.00 0.00 0.00 0.00 0.00 0.00
0.01 0.01 0.01 0.02 0.02 0.02 0.02 0.03 0.03 0.03 0.02 0.01 0.01 0.02 0.02 0.02 0.02 0.01 0.01 0.00 0.01 0.00
0.02 0.02 0.01 0.01 0.01 0.00 0.01 0.03 0.05 0.03 0.01 0.01 0.01 0.02 0.03 0.03 0.03 0.02 0.01 0.01 0.01 0.01
0.01 0.00 0.00 0.00 0.02 0.02 0.03 0.05 0.05 0.03 0.01 0.01 0.00 0.01 0.02 0.01 0.01 0.00 0.00 0.00 0.01 0.01
0.01 0.00 0.00 0.00 0.00 0.01 0.01 0.01 0.02 0.02 0.01 0.00 0.00 0.00 0.00 0.00 0.00 0.00 0.00 0.00 0.00 0.00
0.01 0.00 0.00 0.00 0.00 0.00 0.00 0.00 0.00 0.00 0.00 0.00 0.00 0.00 0.00 0.00 0.00 0.00 0.00 0.00 0.00 0.00
0.00 0.00 0.00 0.00 0.00 0.00 0.00 0.00 0.00 0.00 0.00 0.00 0.00 0.00 0.00 0.00 0.00 0.00 0.00 0.00 0.00 0.00
0.00 0.00 0.00 0.00 0.00 0.00 0.00 0.00 0.00 0.00 0.00 0.00 0.00 0.00 0.00 0.00 0.00 0.00 0.00 0.00 0.00 0.00
0.00 0.00 0.00 0.00 0.00 0.00 0.00 0.00 0.00 0.00 0.00 0.00 0.00 0.00 0.00 0.00 0.00 0.00 0.00 0.00 0.00 0.00
0.00 0.00 0.00 0.00 0.00 0.00 0.00 0.00 0.00 0.00 0.00 0.00 0.00 0.00 0.00 0.00 0.00 0.00 0.00 0.00 0.00 0.00
0.00 0.00 0.00 0.00 0.00 0.00 0.00 0.00 0.00 0.00 0.00 0.00 0.00 0.00 0.00 0.00 0.00 0.00 0.00 0.00 0.00 0.00
MSLP
1015.42 1015.40 1015.51 1015.98 1016.24 1016.58 1016.88 1017.00 1016.95 1017.62 1018.17 1018.40 1018.43 1018.68 1019.05 1019.69 1020.11 1020.55 1020.83 1021.01 1021.25 1021.50
1014.81 1014.99 1015.12 1015.19 1015.62 1015.93 1016.12 1016.34 1016.63 1016.72 1017.07 1017.31 1017.64 1017.83 1018.27 1018.71 1019.16 1019.57 1019.79 1019.98 1020.24 1020.47
1013.94 1014.16 1014.43 1014.77 1015.07 1015.39 1015.54 1015.74 1015.95 1016.13 1016.41 1016.45 1016.75 1017.17 1017.47 1017.89 1018.06 1018.43 1018.61 1018.91 1019.25 1019.30
1013.42 1013.57 1013.97 1014.35 1014.77 1014.92 1015.27 1015.32 1015.45 1015.63 1015.88 1016.11 1016.15 1016.37 1016.72 1016.79 1016.99 1017.29 1017.34 1017.60 1017.81 1017.84
1013.60 1013.77 1013.89 1014.28 1014.72 1014.86 1014.83 1015.01 1015.07 1015.01 1015.41 1015.62 1015.67 1015.61 1015.75 1015.81 1016.04 1015.97 1016.28 1016.28 1016.40 1016.41
1014.65 1015.09 1015.36 1015.53 1015.78 1015.81 1015.54 1015.49 1015.39 1015.43 1015.24 1015.34 1015.50 1015.51 1015.57 1015.63 1015.45 1015.43 1015.29 1015.24 1015.08 1014.70
1016.29 1016.07 1016.37 1016.59 1016.89 1016.65 1016.62 1016.51 1016.46 1016.88 1016.30 1016.89 1017.03 1017.02 1017.04 1016.78 1016.30 1015.96 1015.70 1015.45 1015.28 1014.68
1017.78 1017.44 1017.65 1017.82 1018.06 1018.14 1017.86 1017.63 1017.62 1017.53 1018.21 1017.43 1017.73 1018.26 1018.00 1017.45 1017.13 1016.88 1016.17 1016.12 1015.74 1015.85
1019.15 1018.75 1018.83 1018.91 1019.29 1019.03 1018.81 1018.88 1019.06 1018.76 1019.22 1019.19 1019.10 1019.06 1017.95 1018.43 1017.92 1017.59 1017.05 1017.10 1016.51 1016.54
1020.74 1020.35 1019.83 1019.89 1020.07 1019.81 1019.78 1020.33 1020.27 1019.87 1020.06 1019.78 1019.88 1019.73 1019.07 1019.35 1018.92 1018.24 1017.82 1017.99 1017.22 1016.68
1021.88 1021.92 1021.41 1020.98 1021.06 1020.85 1021.02 1021.03 1020.83 1020.63 1020.89 1020.58 1020.72 1020.05 1019.54 1019.52 1019.18 1018.96 1018.75 1017.99 1017.54 1016.91
1023.54 1023.03 1022.23 1021.95 1021.95 1021.97 1022.28 1021.87 1021.63 1021.69 1021.70 1021.55 1021.43 1020.98 1020.36 1019.80 1019.51 1019.03 1018.66 1018.21 1017.56 1017.03
1024.25 1023.58 1023.31 1023.06 1022.49 1022.87 1022.69 1022.56 1022.51 1022.49 1022.48 1022.29 1021.90 1021.28 1020.67 1020.00 1019.33 1018.94 1018.31 1017.89 1017.50 1017.10
1025.02 1024.59 1024.26 1023.69 1023.64 1023.63 1023.36 1023.31 1023.19 1023.15 1022.92 1022.50 1022.07 1021.43 1020.97 1020.36 1019.71 1019.24 1018.71 1018.15 1017.60 1016.97
Thickness
5599 5604 5606 5605 5607 5607 5608 5608 5610 5604 5602 5601 5604 5601 5598 5596 5594 5590 5588 5586 5584 5581
5594 5596 5599 5603 5604 5604 5606 5606 5603 5604 5605 5602 5602 5600 5597 5595 5593 5589 5587 5584 5582 5579
5589 5590 5592 5595 5598 5599 5602 5603 5603 5604 5602 5601 5602 5599 5598 5594 5593 5590 5589 5584 5580 5579
5581 5584 5586 5587 5589 5593 5595 5597 5599 5600 5599 5597 5598 5597 5595 5595 5594 5590 5590 5587 5581 5581
5569 5571 5577 5579 5580 5584 5588 5591 5594 5599 5597 5595 5592 5595 5592 5593 5591 5591 5588 5588 5584 5584
5547 5548 5551 5556 5560 5565 5572 5575 5579 5584 5589 5589 5587 5587 5587 5586 5588 5587 5587 5585 5585 5589
5521 5530 5535 5539 5543 5549 5554 5559 5562 5561 5569 5566 5565 5565 5564 5567 5570 5569 5571 5571 5573 5576
5497 5510 5518 5523 5526 5531 5537 5543 5544 5546 5541 5551 5547 5537 5544 5550 5551 5550 5555 5554 5555 5554
5477 5493 5502 5509 5511 5517 5523 5521 5520 5525 5522 5526 5528 5527 5535 5530 5530 5532 5538 5534 5538 5537
5463 5476 5491 5497 5500 5506 5508 5505 5505 5509 5509 5512 5512 5512 5515 5509 5511 5517 5519 5515 5520 5521
5454 5463 5476 5486 5488 5491 5491 5492 5494 5495 5494 5496 5495 5499 5501 5499 5499 5499 5498 5502 5503 5505
5440 5453 5466 5473 5474 5475 5473 5478 5480 5479 5479 5479 5479 5482 5485 5488 5487 5487 5486 5486 5487 5489
5436 5448 5454 5460 5465 5463 5465 5467 5468 5467 5466 5468 5470 5473 5476 5478 5480 5479 5480 5479 5477 5475
5432 5439 5445 5452 5454 5455 5458 5460 5461 5461 5461 5463 5465 5467 5468 5469 5470 5469 5468 5466 5465 5463